Regional Weather Roundup
Issued by NWS State College, PA

Home | Current Version | Previous Version | Text Only | Print | Product List | Glossary On
Versions: 1 2 3 4 5 6 7 8 9 10 11 12 13 14 15 16 17 18 19 20 21 22 23 24 25 26 27 28 29 30 31 32 33 34 35 36 37 38 39 40 41 42 43 44 45 46 47 48 49 50
000
ASUS41 KCTP 270110
RWRCTP

REGIONAL WEATHER ROUNDUP
NATIONAL WEATHER SERVICE STATE COLLEGE PA
900 PM EDT TUE AUG 26 2014

Note: "fair" indicates few or no clouds below 12,000 feet with no
significant weather and/or obstructions to visibility.

* = STATION THAT DOES NOT REPORT PRECIPITATION /E.G. RAIN...SNOW...ETC/
    THUNDER OR FOG.

PAZ002>004-007>009-013>016-020>023-029>032-270200-
WESTERN PENNSYLVANIA

CITY           SKY/WX    TMP DP  RH WIND       PRES   REMARKS
ERIE           MOCLDY    78  68  71 S3        30.05F
MEADVILLE      PTCLDY    76  67  73 S6        30.11S
FRANKLIN*      PTCLDY    72  64  78 S6        30.14R
NEW CASTLE     FAIR      74  69  84 CALM      30.13R
BEAVER COUNTY  CLEAR     75  66  73 SW5       30.13S
BUTLER*        CLEAR     72  64  78 CALM      30.15R
PITTSBURGH INT PTCLDY    76  65  68 SW3       30.13R
PITTSBURGH     CLEAR     76  61  59 S5        30.12S
INDIANA*       PTCLDY    68  63  83 CALM      30.17S
LATROBE        CLEAR     72  66  83 CALM      30.14R
WASHINGTON CO* CLEAR     66  63  88 CALM      30.14S
$$

PAZ004>006-010>012-017>019-024>028-033>037-041-042-045-046-049>053-270200-
CENTRAL PENNSYLVANIA

CITY           SKY/WX    TMP DP  RH WIND       PRES   REMARKS
BRADFORD       PTCLDY    69  63  81 S3        30.15S
DUBOIS         CLEAR     70  62  76 SW5       30.14F
CLEARFIELD     CLEAR     69  63  81 CALM      30.14S
JOHNSTOWN      CLEAR     72  47  40 SW5       30.18R
ALTOONA        CLEAR     67  60  78 S7        30.16R
STATE COLLEGE  CLEAR     70  61  73 CALM      30.13S
WILLIAMSPORT   CLEAR     72  63  73 N6        30.09R
SELINSGROVE    CLEAR     66  64  93 CALM      30.11R
FT INDIANTOWN  CLEAR     68  67  98 N2        30.12R
CAPITAL CITY   LGT RAIN  70  64  81 SW3       30.11R
HARRISBURG     PTCLDY    70  65  84 CALM      30.10R
YORK           CLEAR     66  63  90 CALM      30.12R
$$

PAZ038>040-043-044-047-048-054-055-060>062-067>071-270200-
EASTERN PENNSYLVANIA

CITY           SKY/WX    TMP DP  RH WIND       PRES   REMARKS
SCRANTON       CLEAR     71  61  70 S3        30.12R
MOUNT POCONO   CLEAR     64  59  83 W5        30.17R
ALLENTOWN      CLEAR     76  60  57 CALM      30.11R
QUAKERTOWN*    PTCLDY    72  66  83 CALM      30.12R
READING        CLEAR     75  64  68 CALM      30.10R
LANCASTER      CLEAR     73  61  65 W5        30.11R
COATESVILLE    CLEAR     72  66  83 CALM      30.14R
POTTSTOWN      MOCLDY    75  64  68 SW3       30.13R
BLUE BELL      PTCLDY    77  68  73 SW3       30.10R
DOYLESTOWN     MOCLDY    74  64  71 SE5       30.11R
WILLOW GROVE   NOT AVBL
NORTH PHILA    CLEAR     78  61  55 S3        30.12R
PHILADELPHIA   CLEAR     78  66  66 SW7       30.11R
$$



USA.gov is the U.S. government's official web portal to all federal, state and local government web resources and services.